Regional Weather Roundup
Issued by NWS

Home | Current Version | Previous Version | Graphics & Text | Print | Product List | Glossary On
Versions: 1 2 3 4 5 6 7 8 9 10 11 12 13 14 15 16 17 18 19 20 21 22 23 24 25 26 27 28 29 30 31 32 33 34 35 36 37 38 39 40 41 42 43 44 45 46 47 48 49 50
000
ASUS43 KMKX 231821
RWRWI

WISCONSIN REGIONAL WEATHER ROUNDUP
NATIONAL WEATHER SERVICE MILWAUKEE/SULLIVAN WI
100 PM CDT SAT AUG 23 2014

NOTE: "FAIR" INDICATES FEW OR NO CLOUDS BELOW 12,000 FEET WITH NO
SIGNIFICANT WEATHER AND/OR OBSTRUCTIONS TO VISIBILITY.

WIZ001-002-006>008-014>016-023>028-231900-
NORTHWEST WISCONSIN

CITY           SKY/WX    TMP DP  RH WIND       PRES   REMARKS
SUPERIOR ARPT  FOG       62  61  98 E12       30.04S VSB 3/4
6HR MIN TEMP:  61; 6HR MAX TEMP:  64;

ASHLAND        CLOUDY    65  62  90 NE9       30.05F
6HR MIN TEMP:  62; 6HR MAX TEMP:  66;

HAYWARD        CLOUDY    76  68  76 E8        30.02R
6HR MIN TEMP:  64; 6HR MAX TEMP:  76;

SIREN          CLOUDY    73  67  80 NE6       30.00S
6HR MIN TEMP:  64; 6HR MAX TEMP:  73;

RICE LAKE      CLOUDY    75  68  77 E7        30.01S
6HR MIN TEMP:  66; 6HR MAX TEMP:  75; 6HR PCP:  0.01;

LADYSMITH      CLOUDY    76  69  78 E6        30.03S
6HR MIN TEMP:  66; 6HR MAX TEMP:  76;

EAU CLAIRE     CLOUDY    76  72  87 E9        29.96F
6HR MIN TEMP:  68; 6HR MAX TEMP:  76;

MENOMONIE      CLOUDY    75  70  85 E6        29.98R
6HR MIN TEMP:  66; 6HR MAX TEMP:  74;

NEW RICHMOND   CLOUDY    73  69  89 E6        29.98R
6HR MIN TEMP:  67; 6HR MAX TEMP:  73;

OSCEOLA        CLOUDY    74  71  89 E8        30.00R
6HR MIN TEMP:  67; 6HR MAX TEMP:  74;

$$

WIZ003>005-009-010-017-018-231900-
NORTH CENTRAL WISCONSIN

CITY           SKY/WX    TMP DP  RH WIND       PRES   REMARKS
WOODRUFF       CLOUDY    74  68  80 SE6       30.05S
6HR MIN TEMP:  67; 6HR MAX TEMP:  77;

RHINELANDER    CLOUDY    73  68  84 E7        30.05F
6HR MIN TEMP:  68; 6HR MAX TEMP:  73;

EAGLE RIVER    CLOUDY    73  68  86 E8        30.05F
6HR MIN TEMP:  67; 6HR MAX TEMP:  73;

LAND O LAKES   CLOUDY    73  68  83 E3        30.07S
6HR MIN TEMP:  65; 6HR MAX TEMP:  74;

PHILLIPS       CLOUDY    74  69  85 SE6       30.03R
6HR MIN TEMP:  64; 6HR MAX TEMP:  75;

TOMAHAWK       CLOUDY    72  68  88 SE5       30.04F FOG
6HR MIN TEMP:  67; 6HR MAX TEMP:  72;

MEDFORD        CLOUDY    71  70  98 E5        30.02F FOG
6HR MIN TEMP:  68; 6HR MAX TEMP:  71;

MERRILL        CLOUDY    72  71  97 E6        30.03F FOG
6HR MIN TEMP:  69; 6HR MAX TEMP:  72;

$$

WIZ029-030-035-036-043>047-231900-
CENTRAL WISCONSIN

CITY           SKY/WX    TMP DP  RH WIND       PRES   REMARKS
WAUSAU         CLOUDY    73  70  90 E8        30.01F FOG
6HR MIN TEMP:  69; 6HR MAX TEMP:  73; 6HR PCP: TRACE;

MOSINEE        CLOUDY    72  72 100 E7        30.03F FOG
MARSHFIELD     CLOUDY    74  71  91 E9        30.01F FOG
6HR MIN TEMP:  71; 6HR MAX TEMP:  74;

STEVENS POINT  CLOUDY    69  68  96 E7        30.02F FOG
6HR MIN TEMP:  68; 6HR MAX TEMP:  70;

WAUPACA        CLOUDY    74  73  95 SE5       30.01F FOG
6HR MIN TEMP:  71; 6HR MAX TEMP:  74;

WAUTOMA        CLOUDY    75  73  94 E6        30.01S FOG
6HR MIN TEMP:  72; 6HR MAX TEMP:  74;

WISC RAPIDS    CLOUDY    74  71  91 E7        30.02F FOG
6HR MIN TEMP:  71; 6HR MAX TEMP:  74;

CAMP DOUGLAS   CLOUDY    75  75 100 E6        29.98F FOG
$$

WIZ011>013-019>022-031-037>040-048>050-231900-
NORTHEAST WISCONSIN

CITY           SKY/WX    TMP DP  RH WIND       PRES   REMARKS
ANTIGO         CLOUDY    70  69  96 SE8       30.05F FOG
6HR MIN TEMP:  67; 6HR MAX TEMP:  70;

STURGEON BAY   PTSUNNY   73  66  78 E9        30.05F
6HR MIN TEMP:  66; 6HR MAX TEMP:  73;

GREEN BAY      LGT RAIN  74  72  93 S7        30.03S FOG
6HR MIN TEMP:  69; 6HR MAX TEMP:  78; 6HR PCP:  0.09;

MANITOWOC      CLOUDY    73  68  84 SE12      30.04F
6HR MIN TEMP:  70; 6HR MAX TEMP:  73;

APPLETON       CLOUDY    75  72  88 SE13      30.03S FOG
CLINTONVILLE   CLOUDY    73  72  94 SE6       30.02F FOG
OSHKOSH        CLOUDY    78  73  84 SE7       30.01F HX  81
6HR MIN TEMP:  72; 6HR MAX TEMP:  78;

$$

WIZ032>034-041-042-053>061-231900-
SOUTHWEST WISCONSIN

CITY           SKY/WX    TMP DP  RH WIND       PRES   REMARKS
LA CROSSE      LGT RAIN  74  72  93 SE3       29.95F
6HR MIN TEMP:  73; 6HR MAX TEMP:  76; 6HR PCP:  0.27;

SPARTA         CLOUDY    74  73  97 E5        29.98F FOG
6HR MIN TEMP:  70; 6HR MAX TEMP:  74;

VIROQUA        CLOUDY    71  71 100 CALM      29.98F
6HR MIN TEMP:  71; 6HR MAX TEMP:  74; 6HR PCP:  0.32;

BOSCOBEL       LGT RAIN  76  73  91 NE6       29.93F
6HR MIN TEMP:  75; 6HR MAX TEMP:  77; 6HR PCP:  0.11;

PRAIRIE DU CHI LGT RAIN  72  70  94 NW3       29.92F
6HR MIN TEMP:  71; 6HR MAX TEMP:  77; 6HR PCP:  0.66;

PLATTEVILLE    FAIR      73  71  96 N6        29.97F
6HR MIN TEMP:  73; 6HR MAX TEMP:  75; 6HR PCP:  0.31;

$$

WIZ056-057-062-063-064-067-068-231900-
SOUTH CENTRAL WISCONSIN

CITY           SKY/WX    TMP DP  RH WIND       PRES   REMARKS
BARABOO/DELLS  CLOUDY    79  73  80 SE7       29.99F HX  83
6HR MIN TEMP:  73; 6HR MAX TEMP:  79;

LONE ROCK      RAIN      81  75  82 S9        29.97F HX  87
6HR MIN TEMP:  79; 6HR MAX TEMP:  82; 6HR PCP: TRACE;

WATERTOWN      CLOUDY    77  74  91 SE6       30.01S
6HR MIN TEMP:  70; 6HR MAX TEMP:  78;

MADISON        CLOUDY    77  73  87 SE6       30.00S FOG
6HR MIN TEMP:  74; 6HR MAX TEMP:  78;

MIDDLETON      CLOUDY    78  77  96 SE6       30.01S HX  80
6HR MIN TEMP:  76; 6HR MAX TEMP:  79;

MONROE         TSTM      70  68  94 NE5       29.98F
JANESVILLE     CLOUDY    79  75  89 S5        30.01R HX  82
$$

WIZ051-052-058>065-066-070>072-231900-
SOUTHEAST WISCONSIN

CITY           SKY/WX    TMP DP  RH WIND       PRES   REMARKS
MILWAUKEE      CLOUDY    73  70  90 E6        30.03S FOG
6HR MIN TEMP:  70; 6HR MAX TEMP:  74;

WAUKESHA       CLOUDY    75  72  88 SE8       30.03S FOG
MILWAUKEE/TIMM CLOUDY    75  68  78 E5        30.03S
RACINE         CLOUDY    74  71  91 SE6       30.04F FOG
6HR MIN TEMP:  71; 6HR MAX TEMP:  75;

BURLINGTON     CLOUDY    77  71  82 SE3       30.02S
6HR MIN TEMP:  68; 6HR MAX TEMP:  77;

KENOSHA        CLOUDY    78  74  87 E8        30.02F FOG     HX  81
6HR MIN TEMP:  70; 6HR MAX TEMP:  79;

FOND DU LAC    CLOUDY    78  72  81 SE12      30.01F HX  80
6HR MIN TEMP:  71; 6HR MAX TEMP:  79;

SHEBOYGAN      CLOUDY    74  69  85 SE7       30.03F
6HR MIN TEMP:  68; 6HR MAX TEMP:  74;

WEST BEND      CLOUDY    77  68  73 E6        30.03S
JUNEAU         CLOUDY    76  47  35 SE9       30.03S
6HR MIN TEMP:  70; 6HR MAX TEMP:  76;

$$

LSZ147-162-231900-
LAKE SUPERIOR

STATION/POSITION TIME  TEMP    WIND        PRES    WAVE
                       AIR SEA DIR/SP/G            HT/PER
                 (UTC) (F)     (DEG/KT/KT) (MB)    (FT/S)
W MID LAKE BUOY  1750   59 59   40/ 14/ 16 1017.6F   1/ 4
DEVILS ISLAND    1800   60      70/ 13/ 14 1017.8F
PORT WING        1740   61      30/ 11/ 14 1017.6F
SAXON HARBOR     1700   64      20/  3/  4 1017.9S
$$

LMZ867-665-643>646-231900-
LAKE MICHIGAN

STATION/POSITION TIME  TEMP    WIND        PRES    WAVE
                       AIR SEA DIR/SP/G            HT/PER
                 (UTC) (F)     (DEG/KT/KT) (MB)    (FT/S)
N MID LAKE BUOY  1750   67 66   70/  8/ 10 1017.7R   1
NORTHPORT PIER   1700   69     120/  3/  3 1018.3S
SISTER BAY       1711   80     160/ 10/ 12   N/A
KEWAUNEE LAKESHO 1800   69      90/  3/  4 1016.5F
SHEBOYGAN LAKESH 1800   69 68  160/  5/  6 1017.1F
ATWATER BUOY     1800   71     130/  6/  8 1018.0S
MILWAUKEE LAKESH 1800   70     130/  6/  7   N/A
S MID LAKE BUOY  1750   70 69  140/  6/  8 1016.7F   1
KENOSHA   LAKESH 1800   72     110/  5/  6 1016.3S
$$

TC  - TEMPERATURE IN CELSIUS
VSB - VISIBILITY IN STATUTE MILES
WCI - WIND CHILL INDEX
HX  - HEAT INDEX




USA.gov is the U.S. government's official web portal to all federal, state and local government web resources and services.